Find Starlink 5797

NORAD ID: 55784 Int'l Des: 2023-028 Owner: SPXS Country: US Constellation: starlink operational
LEOCIRCULAR

Aktuelle Ansicht

3D-Globus wird geladen...

Über Starlink 5797

Beschreibung wird geladen...

Nächste Überflüge

Passes for default location (London). Set your location on the main map for personalized predictions.

Höhenverlauf

Loading altitude history...

Zweizeiliger Elementsatz

1 55784U 23028AV 26150.93425361 .00004924 00000-0 42030-3 0 9992
2 55784 70.0009 357.1706 0002397 265.7567 94.3318 14.98321168179340
Epoch: 30. Mai 2026 • Age: 17 hours

Aktueller Status

Höhe 595.8 km
Geschwindigkeit 7.56 km/s
Subsatellitenpunkt -69.40°S, 126.27°E
Startdatum 3. März 2023
Alter 3.2 years
Typ internet

Technische Details

Klassifizierung Payload
Masse 305.00 kg
Trockenmasse 290.00 kg
Gesamtmasse 305.00 kg
Länge 0.20 m
Durchmesser 2.80 m
Spannweite 9.00 m
Form Box + pan
Hersteller SPXS
Bus-Typ Starlink
Phasenstatus In Orbit
Besitzer/Staat SPXS/US

Most Searched